This is the latest recevied weather packets stored in our database for station/object OE-11204. If no packets are shown the sender has not sent any weather packets the latest 10 day(s).
| Time | Temp. | Humidity | Pressure | Rain* | Wind** | Luminosity | Snow |
|---|---|---|---|---|---|---|---|
| 1788095488 | 28.33° C | 43% | 1011.8 hPa | 0 mm | - | 736 W/m² | - |
| 1788095115 | 28.33° C | 43% | 1012 hPa | 0 mm | - | 767 W/m² | - |
| 1788094515 | 27.78° C | 43% | 1012 hPa | 0 mm | - | 767 W/m² | - |
| 1788093688 | 27.78° C | 42% | 1012.2 hPa | 0 mm | - | 724 W/m² | - |
| 1788093315 | 27.78° C | 42% | 1012.3 hPa | 0 mm | - | 767 W/m² | - |
| 1788092714 | 27.78° C | 42% | 1012.5 hPa | 0 mm | - | 780 W/m² | - |
| 1788091887 | 27.78° C | 44% | 1012.5 hPa | 0 mm | - | 804 W/m² | - |
| 1788091515 | 27.22° C | 42% | 1012.9 hPa | 0 mm | - | 780 W/m² | - |
| 1788090915 | 26.67° C | 46% | 1013.1 hPa | 0 mm | - | 804 W/m² | - |
| 1788090087 | 26.11° C | 47% | 1013.3 hPa | 0 mm | - | 811 W/m² | - |
| 1788089714 | 25.56° C | 50% | 1013.5 hPa | 0 mm | - | 804 W/m² | - |
| 1788089115 | 26.11° C | 54% | 1013.6 hPa | 0 mm | - | 786 W/m² | - |
| 1788088288 | 25.56° C | 52% | 1013.8 hPa | 0 mm | - | 774 W/m² | - |
| 1788087915 | 25° C | 52% | 1014.2 hPa | 0 mm | - | 761 W/m² | - |
| 1788087315 | 25° C | 54% | 1014.5 hPa | 0 mm | - | 755 W/m² | - |
| 1788086488 | 25° C | 52% | 1014.6 hPa | 0 mm | - | 743 W/m² | - |
| 1788086115 | 25° C | 56% | 1014.7 hPa | 0 mm | - | 736 W/m² | - |
| 1788085515 | 24.44° C | 56% | 1015 hPa | 0 mm | - | 730 W/m² | - |
| 1788084688 | 23.89° C | 57% | 1015.2 hPa | 0 mm | - | 718 W/m² | - |
| 1788084315 | 23.89° C | 54% | 1015.4 hPa | 0 mm | - | 712 W/m² | - |
| 1788083714 | 23.33° C | 55% | 1015.6 hPa | 0 mm | - | 699 W/m² | - |
| 1788082888 | 23.33° C | 56% | 1015.8 hPa | 0 mm | - | 687 W/m² | - |
| 1788082515 | 23.33° C | 57% | 1016 hPa | 0 mm | - | 668 W/m² | - |
| 1788081914 | 22.78° C | 63% | 1016.1 hPa | 0 mm | - | 662 W/m² | - |
| 1788081088 | 22.78° C | 61% | 1016.4 hPa | 0 mm | - | 644 W/m² | - |
* Rain latest hour (hover to see other rain measurements)
** Current wind speed in m/s (hover to see current wind gust speed)